User: anonymous
Location: Bush Observatory
(40.2653°N, 94.3194°W)
Time: 02:41:02
(UTC-05:00)
Language:

Cosmos 1933 Rocket - Orbit

View from above orbital plane
View from above orbital plane
View from above satellite
View from above satellite

Ground track
Ground track

The orbit data is extracted from the following two-line orbital elements,

1 18959U 88020B   14112.53048219  .00000649  00000-0  77313-4 0  2202
2 18959 082.5368 266.5923 0016045 338.2949 086.7129 14.82769231409888
Epoch (UTC): 22 April 2014 12:43:53
Eccentricity: 0.0016045
inclination: 82.5368°
perigee height: 609 km
apogee height: 632 km
right ascension of ascending node: 266.5923°
argument of perigee: 338.2949°
revolutions per day: 14.82769231
mean anomaly at epoch: 86.7129°
orbit number at epoch: 40988

The dashed part of the orbit path shows where the satellite is in the earth's shadow,  

DLR